YAOGAN-7

Last updated on Sun Jun 21 2026 00:02:51 GMT+0000 (Coordinated Universal Time)

1 36110U 09069A 26171.40605635 .00000340 00000+0 54142-4 0 9997 2 36110 98.0068 57.2532 0025376 31.7797 328.4939 14.78012533890105
UTC large
Height (km)
Speed (km/s)
/
Latitude / Longitude
Inclination (degrees)
Orbital Period (minutes)
Azimuth
Elevation
Range (km)
Doppler Factor

Next 0 passes for location: London (51.5072 / 0.1276)

No passes found over London.
YAOGAN-7